Regional Weather Roundup
Issued by NWS Raleigh/Durham, NC

Home | Current Version | Previous Version | Text Only | Print | Product List | Glossary On
Versions: 1 2 3 4 5 6 7 8 9 10 11 12 13 14 15 16 17 18 19 20 21 22 23 24 25 26 27 28 29 30 31 32 33 34 35 36 37 38 39 40 41 42 43 44 45 46 47 48 49 50
000
ASUS42 KRAH 202210
RWRRAH
NORTH CAROLINA WEATHER ROUNDUP
NATIONAL WEATHER SERVICE RALEIGH NC
600 PM EDT WED SEP 20 2017

NOTE: "FAIR" INDICATES FEW OR NO CLOUDS BELOW 12,000 FEET WITH NO
SIGNIFICANT WEATHER AND/OR OBSTRUCTIONS TO VISIBILITY.

NCZ001-053-055-056-065-067-202300-
WESTERN NORTH CAROLINA

CITY           SKY/WX    TMP DP  RH WIND       PRES   REMARKS
ASHEVILLE      CLOUDY    81  64  56 W9        30.07S
JEFFERSON      SUNNY     75  56  51 NW7       30.11S
MORGANTON      SUNNY     87  58  36 CALM      30.03S
HICKORY        SUNNY     85  62  46 VRB5      29.99S
RUTHERFORDTON  CLOUDY    86  64  47 CALM      30.00S
MOUNT AIRY     SUNNY     85  63  47 CALM      30.01S
BOONE          SUNNY     77  53  44 W10       30.12S
$$

NCZ021-022-025-041-071-084-088-202300-
CENTRAL NORTH CAROLINA

CITY           SKY/WX    TMP DP  RH WIND       PRES   REMARKS
CHARLOTTE      MOSUNNY   87  66  49 CALM      29.98S
GREENSBORO     MOSUNNY   86  63  45 W6        29.97S
WINSTON-SALEM  SUNNY     85  63  47 W6        29.99R
RALEIGH-DURHAM MOSUNNY   90  61  37 N6        29.94S
FORT BRAGG     CLOUDY    81  65  58 CALM      29.93S
FAYETTEVILLE   CLOUDY    78  68  71 CALM      29.94R THUNDER
BURLINGTON     SUNNY     87  63  44 W3        29.96R
LAURINBURG     CLOUDY    86  71  60 SW6       29.95R
$$

NCZ011-015-027-028-043-044-047-080-103-202300-
NORTHEASTERN NORTH CAROLINA

CITY           SKY/WX    TMP DP  RH WIND       PRES   REMARKS
ROCKY MT-WILSO MOSUNNY   86  75  69 CALM      29.94R HX  95
GREENVILLE     MOSUNNY   82  70  65 CALM      29.96R
WASHINGTON     SUNNY     88  68  51 NW7       29.94R
ELIZABETH CITY SUNNY     85  66  53 NW6       29.92S
MANTEO         SUNNY     81  67  63 NE5       29.93S
CAPE HATTERAS  SUNNY     81  73  76 VRB3      29.94S
$$

NCZ078-087-090-091-093-098-101-202300-
SOUTHEASTERN NORTH CAROLINA

CITY           SKY/WX    TMP DP  RH WIND       PRES   REMARKS
LUMBERTON      SUNNY     87  70  56 SW5       29.94R
GOLDSBORO      CLOUDY    78  74  87 SE3       29.93S
KINSTON        CLOUDY    79  68  69 W7        29.95R
KENANSVILLE    SUNNY     88  68  51 W3        29.94S
NEW BERN       MOSUNNY   87  69  54 W6        29.94S
CHERRY POINT   MOSUNNY   87  69  54 W7        29.95R
BEAUFORT       MOSUNNY   81  73  76 SW10      29.95R
JACKSONVILLE   SUNNY     87  70  56 SW3       29.93S
WILMINGTON     SUNNY     88  65  46 W6        29.94S
$$




USA.gov is the U.S. government's official web portal to all federal, state and local government web resources and services.